Regional Weather Roundup
Issued by NWS Portland, ME

Home | Current Version | Previous Version | Text Only | Print | Product List | Glossary On
Versions: 1 2 3 4 5 6 7 8 9 10 11 12 13 14 15 16 17 18 19 20 21 22 23 24 25 26 27 28 29 30 31 32 33 34 35 36 37 38 39 40 41 42 43 44 45 46 47 48 49 50
000
ASUS41 KGYX 242105
RWRGYX
WEATHER ROUNDUP FOR MAINE AND NEW HAMPSHIRE
NATIONAL WEATHER SERVICE GRAY ME
400 PM EST FRI FEB 24 2017

MEZ002-005-006-010-012-015-018-020-021-024-026-027-029-242200-
MAINE

CITY           SKY/WX    TMP DP  RH WIND       PRES   REMARKS
PORTLAND       MOSUNNY   51  45  79 SE6       29.84F
SANFORD        MOSUNNY   49  44  83 E5        29.83F
BAR HARBOR     CLOUDY    45  42  89 S12       29.88F
WISCASSET      CLOUDY    50  46  86 CALM      29.86F
ROCKLAND       PTSUNNY   45  43  93 S7        29.87S
FRYEBURG       CLOUDY    49  46  90 NW5       29.86R
LEWISTONAUBURN CLOUDY    50  49  96 S6        29.85R FOG
AUGUSTA        CLOUDY    51  46  83 S6        29.84F
WATERVILLE     LGT RAIN  48  46  93 CALM      29.81F FOG
BANGOR         CLOUDY    47  44  90 S5        29.85F
GREENVILLE       N/A     44  42  93 SE3       29.80R
MILLINOCKET    LGT RAIN  54  37  52 VRB3      29.83F
HOULTON        CLOUDY    42  34  73 CALM      29.83F
PRESQUE ISLE   LGT RAIN  48  33  56 NW5       29.86R
FRENCHVILLE    CLOUDY    38  31  76 N16G23    29.87R
CARIBOU        CLOUDY    45  31  58 N5        29.86R
$$

NHZ002-005-008-009-011-012-014-242200-
NEW HAMPSHIRE

CITY           SKY/WX    TMP DP  RH WIND       PRES   REMARKS
PORTSMOUTH     PTSUNNY   57  47  69 NE5       29.81F
ROCHESTER      MOSUNNY   61  49  64 SE6       29.82F
NASHUA         MOSUNNY   72  50  45 SW9G17    29.82S
MANCHESTER     MOSUNNY   72  47  40 SW12      29.80S
CONCORD        SUNNY     67  51  56 S6        29.81F
LACONIA        CLOUDY    52  48  86 MISG      29.84
PLYMOUTH       CLOUDY    48  46  94 CALM      29.84S FOG
BERLIN         LGT RAIN  43  41  93 SE3       29.80S VSB<1/4
WHITEFIELD     LGT RAIN  45  44  97 CALM      29.81S VSB 1/4
JAFFREY        SUNNY     64  47  53 S12G24    29.84S
KEENE          SUNNY     68  52  56 S10       29.81S
LEBANON        CLOUDY    51  49  92 CALM      29.81F FOG
MT WASHINGTON  SHOWER    39  39 100 W63G75      N/A  VSB 0
$$

VTZ005-007-008-242200-
VERMONT

CITY           SKY/WX    TMP DP  RH WIND       PRES   REMARKS
ST JOHNSBURY     N/A     46  46 100 MISG      29.80R
MONTPELIER     CLOUDY    50  50 100 SW5       29.83F
BURLINGTON     CLOUDY    42  38  85 N6        29.82S
$$

MAZ007-012-024-CTZ003-RIZ002-NYZ038-NYZ072-242200-
SOUTHERN NEW ENGLAND AND NY

CITY           SKY/WX    TMP DP  RH WIND       PRES   REMARKS
BOSTON         MOSUNNY   68  51  54 S20       29.84S
WORCESTER      SUNNY     67  43  41 S18G25    29.85F
NANTUCKET      SUNNY     50  45  83 SW18      29.96F
PROVIDENCE     MOSUNNY   67  53  61 S14G25    29.90S
HARTFORD       PTSUNNY   70  51  51 S17G26    29.85R
ALBANY         MOSUNNY   74  51  44 S9        29.76F
NEW YORK CITY  MOSUNNY   66  52  60 S16G23    29.86S
$$

ANZ081-ANZ082-ANZ150-NHZ014-MEZ023>029-242200-
COASTAL MARINE OBSERVATIONS

STATION/POSITION TIME  TEMP    WIND        PRES    WAVE
                       AIR SEA DIR/SP/G            HT/PER
                 (UTC) (F)     (DEG/KT/KT) (MB)    (FT/S)
MOUNT DESERT ROC 2100   43                 1012.1F
MATINICUS ROCK   2000   45     180/ 12/ 12 1011.5F
ISLE OF SHOALS   2000   49     230/  4/  5 1010.1F
JEFFREYS LEDGE   2036      43                N/A     4/11
CASHES LEDGE BUO 1950   50 43              1012.3    4/10
GEORGES BANK BUO 1950   49 44              1017.3    4/11
$$

.............KEY..............
   WCI - WIND CHILL
   TC  - TEMPERATURE IN CELSIUS
   VSB - VISIBILITY IN MILES
   HX  - HEAT INDEX
   FAIR- INDICATES FEW OR NO CLOUDS BELOW 12,000 FT, WITH NO
         SIGNIFICANT WEATHER AND/OR OBSTRUCTIONS TO VISIBILITY.





USA.gov is the U.S. government's official web portal to all federal, state and local government web resources and services.